STARLINK-32451, 61857

Orbit data source: Space-Track

STARLINK-32451, 61857 is a payload satellite owned by SpaceX/Seattle (US) in LEO that was launched on Thu, 07 Nov 2024 UTC via an FALCON 9 launch vehicle from the Air Force Eastern Test Range (AFETR). Payload-class satellites include a variety of spacecraft equipped with specific instruments for various scientific and technological missions. These include communications satellites like Starlink; space stations such as the ISS; scientific satellites like the Hubble; Earth observation satellites from companies like Planet Labs, Umbra, and HawkEye 360; GPS; miniature CubeSats for education and research; and military/defense satellites.

Loading next visibility...
Identifier
61857, 2024-202N
Orbit
LEO
Country
Flag of USUS
Related business
Manufacturer
SpaceX/Seattle
Mission
Operational Commercial Communications
Bus & Motor
STARLINK V2M, Unknown motor
Mass
730 kg wet, ~700 kg dry
Launch date (UTC)
2024-11-07 (1 year ago)
Launch vehicle
FALCON 9
Launch site
Air Force Eastern Test Range (AFETR)
Object type
Payload
Rocket body
Debris
Shape & HBR
Box + 2 Pan, 17.7 m
Radar Cross Section
33.884 m², Large (>1 m²)

Expand to show TLE details & history
Last TLE update: 11 hours ago

TLE from 11 hours ago
0 STARLINK-32451
1 61857U 24202N   26035.11872731  .00000874  00000-0  41285-4 0  9996
2 61857  43.0001  67.5596 0000632 249.9483 110.1301 15.27579339 70202
Epoch: 2026-02-04T02:50Z
TLE epoch observation values (Epoch: 2026-02-04T02:50:58.039Z)
Latitude
Longitude
-109.47212°
Altitude
482.976 km
Speed
7.626 km/s
True Right ascension
04h 30m 14s
True Declination
0° 00' 00"
Sunlit
Object was in daylight at epoch
Visualization orbit readout
Latitude
Unknown
Longitude
Unknown
Altitude
Unknown
Speed
Unknown
Apparent Right ascension
Unknown
Apparent Declination
Unknown
Sunlit
N/A
Visualization observer readout
Local Sidereal Time
15:54:56
Azimuth
Unknown
Elevation
Unknown
Doppler factor
Unknown
Orbital elements
Apogee altitude
485.43 km
Perigee altitude
484.562 km
Semi-major axis
6,863.133 km
Eccentricity
0.00006
Inclination
43.0001°
RAAN
67.5596°
Arg. of periapsis
249.9483°
True anomaly
110.1369°
Mean anomaly
110.1301°
Eccentric anomaly
110.1335°
Mean motion
3.81733 °/min
Orbital period
94.31 mins
BSTAR
0.000041285
Loading maneuver chart data...
Computing Atmospheric mass density...
Loading historical data...
Loading historical data...
Loading historical data...
Loading historical data...
Loading historical data...
Loading historical data...
Loading historical data...

Documentation

Showing up to 5 results
|